Location: Litvinovka
(48.6667°N, 34.3500°E)
Time: 11:17:05
(UTC+00:00)

Abrixas rocket - Pass Details

Date: 18 September 2020
Orbit: 328 x 335 km, 48.4° (Epoch: 25 October)

Event Time Altitude Azimuth Distance (km) Brightness Sun altitude
Rises 17:54:26 0° 270° (W) 2,093 6.8 -20.8°
Reaches altitude 10° 17:56:26 10° 270° (W) 1,256 5.5 -21.0°
Enters shadow 17:58:10 34° 270° (W) 572 3.4 -21.3°
